Regional Weather Roundup
Issued by NWS

Home | Current Version | Previous Version | Graphics & Text | Print | Product List | Glossary On
Versions: 1 2 3 4 5 6 7 8 9 10 11 12 13 14 15 16 17 18 19 20 21 22 23 24 25 26 27 28 29 30 31 32 33 34 35 36 37 38 39 40 41 42 43 44 45 46 47 48 49 50
000
ASUS43 KTOP 211859
RWRKS

WEATHER ROUNDUP FOR KANSAS
NATIONAL WEATHER SERVICE GOODLAND KS
200 PM CDT MON AUG 21 2017

NOTE:  "FAIR" INDICATES FEW OR NO CLOUDS BELOW 12,000 FEET WITH NO
SIGNIFICANT WEATHER AND/OR OBSTRUCTIONS TO VISIBILITY.

KSZ001>006-013>018-027>032-041>047-212000-
NORTHWEST KANSAS

CITY           SKY/WX    TMP DP  RH WIND       PRES   REMARKS
GOODLAND       SUNNY     81  62  52 S14       29.99F
HAYS           CLOUDY    83  66  56 S17G25    29.97S
HILL CITY      CLOUDY    85  65  51 S16G23    29.96F
RUSSELL        CLOUDY    82  69  64 S15       29.96F
$$

KSZ061>065-074>080-084>089-212000-
SOUTHWEST KANSAS

CITY           SKY/WX    TMP DP  RH WIND       PRES   REMARKS
DODGE CITY     CLOUDY    83  64  52 S21       30.02F
ELKHART          N/A    N/A N/A N/A MISG        N/A
GARDEN CITY    SUNNY     83  65  54 S18       30.00F
GREAT BEND     CLOUDY    82  71  69 S15       30.00F
LIBERAL        MOSUNNY   80  67  64 S23       30.04F
$$

KSZ066>073-081>083-090>101-212000-
SOUTHEAST KANSAS

CITY           SKY/WX    TMP DP  RH WIND       PRES   REMARKS
CHANUTE        SUNNY     87  75  67 S9        30.04F HX  96
COFFEYVILLE    SUNNY     86  76  71 S10       30.04S HX  96
HUTCHINSON     MOSUNNY   86  73  65 S10       30.00F
MEDICINE LODGE   N/A     84  71  65 S10       30.00F
NEWTON         SUNNY     86  74  67 S13       30.02S
PARSONS        SUNNY     86  75  69 S7        30.06S HX  95
WICHITA INTL   PTSUNNY   89  72  56 S15       30.00F HX  96
WICHITA JABRA  SUNNY     85  75  72 S15       30.00F
WICHITA MCCONL MOSUNNY   87  71  59 S15       30.01F
WINFIELD       SUNNY     88  74  63 S12       30.02F HX  96
$$

KSZ007>012-019>026-033>040-048>060-102>105-212000-
NORTHEAST KANSAS

CITY           SKY/WX    TMP DP  RH WIND       PRES   REMARKS
CONCORDIA      CLOUDY    81  69  67 S15       29.97S
EMPORIA        CLOUDY    86  74  67 S12       30.01S
LAWRENCE       HVY RAIN  76  76 100 NE9       30.00F FOG
MANHATTAN      LGT RAIN  79  71  76 CALM      29.98F
OLATHE IND     CLOUDY    82  76  81 SE10      30.02F
OLATHE EXE     CLOUDY    79  76  90 SE8       30.03F
SALINA         CLOUDY    86  74  67 S13       29.97F
TOPEKA BILLARD MOSUNNY   82  78  88 E8        30.00F
TOPEKA FORBES  MOSUNNY   86  77  74 E5        30.01F HX  97
$$




USA.gov is the U.S. government's official web portal to all federal, state and local government web resources and services.